Regional Weather Roundup
Issued by NWS

Home | Current Version | Previous Version | Text Only | Print | Product List | Glossary On
Versions: 1 2 3 4 5 6 7 8 9 10 11 12 13 14 15 16 17 18 19 20 21 22 23 24 25 26 27 28 29 30 31 32 33 34 35 36 37 38 39 40 41 42 43 44 45 46 47 48 49 50
000
ASUS43 KFSD 160110
RWRSD

WEATHER ROUNDUP FOR SOUTH DAKOTA
NATIONAL WEATHER SERVICE SIOUX FALLS SD
800 PM CDT TUE JUN 15 2021

NOTE: "FAIR" INDICATES FEW OR NO CLOUDS BELOW 12,000 FEET WITH NO
SIGNIFICANT WEATHER AND/OR OBSTRUCTIONS TO VISIBILITY.


SDZ001>005-009-010-012>017-160200-
NORTHWEST AND NORTH CENTRAL SOUTH DAKOTA

CITY           SKY/WX    TMP DP  RH WIND       PRES   REMARKS
BUFFALO          N/A     92  58  31 SE26G36   29.86F
FAITH            N/A     88  59  37 SE21G31   29.93F
MOBRIDGE       SUNNY     91  47  21 SE20G29   29.94F
$$

SDZ012>016-024>037-041>051-057-063-072>074-160200-
SOUTHWEST AND SOUTH CENTRAL SOUTH DAKOTA

CITY           SKY/WX    TMP DP  RH WIND       PRES   REMARKS
RAPID CTY ARPT SUNNY     91  63  39 SE12      29.93F
PIERRE         SUNNY     90  57  32 SE18G26   29.94F
CUSTER         SUNNY     89  50  26 VRB6      30.14F
PHILIP         LGT RAIN  95  65  37 E20G31    29.90F HX  97
PINE RIDGE     SUNNY     94  58  29 SE15G24   29.97F
SPEARFISH      FAIR      90  73  58 SE3       29.95F HX  98
WINNER         SUNNY     87  65  47 SE13      29.98F
$$

SDZ004>011-016>023-039-040-160200-
NORTHEAST SOUTH DAKOTA

CITY           SKY/WX    TMP DP  RH WIND       PRES   REMARKS
ABERDEEN       SUNNY     86  48  26 E10       30.03F
WATERTOWN      SUNNY     82  49  31 E8G18     30.08F
BROOKINGS      SUNNY     83  50  31 E12       30.08S
SISSETON         N/A     82  52  35 SE8       30.06F
$$

SDZ017-020-022-023-036>040-048>070-160200-
SOUTHEAST SOUTH DAKOTA

CITY           SKY/WX    TMP DP  RH WIND       PRES   REMARKS
SIOUX FALLS    MOSUNNY   88  45  22 SE8       30.05S
HURON          SUNNY     86  52  30 SE8       30.01F
CHAMBERLAIN    SUNNY     87  60  39 SE12G17   29.99F
MITCHELL       SUNNY     89  52  28 SE8       30.01F
YANKTON        SUNNY     86  55  34 E7        30.03S
$$

ABBREVIATIONS USED IN REMARKS
   TC - TEMPERATURE IN CELSIUS
  WCI - WIND CHILL INDEX
   HX - HEAT INDEX
  VSB - VISIBILITY




USA.gov is the U.S. government's official web portal to all federal, state and local government web resources and services.